Radiation Dose at Monitoring Post of Fukushima Daini Nuclear Power Station
Date,Time,MP-1(microSv/h),MP-2(microSv/h),MP-3(microSv/h),MP-4(microSv/h),MP-5(microSv/h),MP-6(microSv/h),MP-7(microSv/h),Wind Direction,Wind Velocity(m/s),Rain
2020/03/17,00:00,0.177,0.162,0.255,0.240,0.252,0.137,0.083,northwest,3.0,No
2020/03/17,00:10,0.177,0.162,0.256,0.241,0.253,0.137,0.084,west-northwest,2.7,No
2020/03/17,00:20,0.178,0.161,0.255,0.241,0.253,0.137,0.083,west,1.2,No
2020/03/17,00:30,0.178,0.162,0.255,0.241,0.252,0.137,0.084,northwest,0.9,No
2020/03/17,00:40,0.177,0.162,0.256,0.240,0.253,0.137,0.083,-,CALM,No
2020/03/17,00:50,0.177,0.162,0.255,0.240,0.253,0.137,0.084,-,CALM,No
2020/03/17,01:00,0.177,0.162,0.256,0.241,0.252,0.137,0.084,south,0.8,No
2020/03/17,01:10,0.177,0.162,0.256,0.239,0.252,0.138,0.084,south-southwest,2.5,No
2020/03/17,01:20,0.177,0.162,0.257,0.241,0.251,0.137,0.084,south-southwest,1.7,No
2020/03/17,01:30,0.177,0.162,0.256,0.240,0.253,0.138,0.083,west,3.5,No
2020/03/17,01:40,0.177,0.162,0.255,0.241,0.253,0.136,0.084,west-northwest,4.7,No
2020/03/17,01:50,0.176,0.161,0.255,0.242,0.253,0.136,0.083,west-northwest,3.6,No
2020/03/17,02:00,0.177,0.161,0.255,0.240,0.253,0.138,0.083,west,3.7,No
2020/03/17,02:10,0.177,0.161,0.256,0.239,0.253,0.136,0.084,west,4.2,No
2020/03/17,02:20,0.178,0.162,0.256,0.240,0.254,0.137,0.083,west,3.6,No
2020/03/17,02:30,0.178,0.162,0.256,0.240,0.252,0.138,0.083,west-northwest,3.9,No
2020/03/17,02:40,0.177,0.161,0.256,0.241,0.252,0.137,0.084,west-northwest,4.3,No
2020/03/17,02:50,0.176,0.162,0.255,0.241,0.252,0.137,0.083,west,3.0,No
2020/03/17,03:00,0.177,0.161,0.256,0.242,0.252,0.137,0.084,west,2.6,No
2020/03/17,03:10,0.178,0.162,0.256,0.240,0.253,0.137,0.083,west,2.9,No
2020/03/17,03:20,0.176,0.163,0.256,0.241,0.254,0.137,0.084,west-southwest,2.5,No
2020/03/17,03:30,0.177,0.162,0.256,0.241,0.252,0.137,0.084,west-northwest,1.3,No
2020/03/17,03:40,0.177,0.161,0.257,0.239,0.252,0.137,0.083,-,CALM,No
2020/03/17,03:50,0.179,0.161,0.256,0.242,0.251,0.137,0.084,-,CALM,No
2020/03/17,04:00,0.177,0.161,0.256,0.241,0.254,0.138,0.084,south-southwest,0.6,No
2020/03/17,04:10,0.178,0.162,0.256,0.242,0.254,0.137,0.082,-,CALM,No
2020/03/17,04:20,0.177,0.162,0.256,0.240,0.252,0.138,0.084,northeast,0.7,No
2020/03/17,04:30,0.178,0.163,0.256,0.241,0.252,0.136,0.084,west-northwest,1.3,No
2020/03/17,04:40,0.178,0.162,0.255,0.241,0.253,0.136,0.084,west,2.0,No
2020/03/17,04:50,0.177,0.161,0.257,0.241,0.253,0.138,0.083,west,0.8,No
2020/03/17,05:00,0.178,0.162,0.256,0.241,0.253,0.137,0.083,southwest,0.7,No
2020/03/17,05:10,0.177,0.161,0.256,0.241,0.253,0.138,0.084,west-southwest,1.2,No
2020/03/17,05:20,0.177,0.162,0.255,0.240,0.252,0.138,0.084,west-southwest,3.0,No
2020/03/17,05:30,0.177,0.162,0.255,0.241,0.253,0.138,0.084,west-southwest,1.7,No
2020/03/17,05:40,0.177,0.162,0.256,0.241,0.252,0.137,0.084,south,1.5,No
2020/03/17,05:50,0.177,0.162,0.256,0.240,0.253,0.136,0.084,south,2.0,No
2020/03/17,06:00,0.177,0.162,0.256,0.240,0.253,0.137,0.085,south-southwest,2.1,No
2020/03/17,06:10,0.177,0.162,0.257,0.241,0.252,0.137,0.084,south-southwest,1.7,No
2020/03/17,06:20,0.177,0.162,0.256,0.240,0.252,0.137,0.084,west-southwest,2.2,No
2020/03/17,06:30,0.178,0.161,0.255,0.240,0.253,0.137,0.084,west-southwest,3.1,No
2020/03/17,06:40,0.177,0.161,0.256,0.241,0.253,0.137,0.083,west-southwest,3.7,No
2020/03/17,06:50,0.177,0.161,0.256,0.242,0.254,0.137,0.084,west-southwest,3.1,No
2020/03/17,07:00,0.177,0.161,0.256,0.240,0.254,0.138,0.084,southwest,2.3,No
2020/03/17,07:10,0.176,0.162,0.255,0.241,0.253,0.137,0.084,southwest,2.1,No
2020/03/17,07:20,0.177,0.162,0.258,0.241,0.253,0.137,0.084,southwest,3.1,No
2020/03/17,07:30,0.177,0.162,0.256,0.240,0.253,0.137,0.083,west-southwest,2.4,No
2020/03/17,07:40,0.177,0.161,0.256,0.240,0.254,0.138,0.083,southwest,1.7,No
2020/03/17,07:50,0.177,0.162,0.254,0.240,0.253,0.138,0.083,southwest,1.1,No
2020/03/17,08:00,0.177,0.161,0.256,0.240,0.253,0.137,0.083,south,1.8,No
2020/03/17,08:10,0.177,0.161,0.256,0.239,0.254,0.138,0.083,south-southeast,2.1,No
2020/03/17,08:20,0.177,0.161,0.255,0.240,0.251,0.137,0.083,south,3.0,No
2020/03/17,08:30,0.177,0.161,0.256,0.240,0.252,0.137,0.084,southwest,3.2,No
2020/03/17,08:40,0.177,0.161,0.254,0.238,0.254,0.137,0.084,west-southwest,3.7,No
2020/03/17,08:50,0.177,0.160,0.254,0.240,0.253,0.137,0.083,west,2.4,No
2020/03/17,09:00,0.177,0.160,0.255,0.240,0.253,0.137,0.084,west,2.3,No
2020/03/17,09:10,0.177,0.162,0.255,0.239,0.253,0.137,0.083,west,5.2,No
2020/03/17,09:20,0.176,0.162,0.254,0.240,0.252,0.137,0.083,west-southwest,6.2,No
2020/03/17,09:30,0.176,0.161,0.256,0.239,0.253,0.136,0.083,west,6.2,No
2020/03/17,09:40,0.177,0.161,0.255,0.240,0.253,0.137,0.083,west-southwest,7.9,No
2020/03/17,09:50,0.176,0.161,0.255,0.240,0.254,0.137,0.084,west-southwest,7.5,No
2020/03/17,10:00,0.177,0.162,0.255,0.241,0.254,0.138,0.083,west-southwest,7.1,No
2020/03/17,10:10,0.176,0.162,0.256,0.240,0.253,0.137,0.084,southwest,7.0,No
2020/03/17,10:20,-,0.161,0.256,0.241,0.252,0.137,0.084,southwest,7.9,No
2020/03/17,10:30,-,0.161,0.256,0.240,0.254,0.136,0.083,west-southwest,7.0,No
2020/03/17,10:40,-,0.161,0.255,0.240,0.252,0.137,0.083,west-southwest,7.8,No
2020/03/17,10:50,-,0.162,0.256,0.242,0.254,0.136,0.083,west-southwest,6.1,No
2020/03/17,11:00,-,0.162,0.255,0.241,0.252,0.136,0.084,west-southwest,6.5,No
2020/03/17,11:10,-,0.161,0.255,0.241,0.255,0.136,0.083,west-southwest,6.8,No
2020/03/17,11:20,-,0.161,0.257,0.240,0.253,0.138,0.083,west-northwest,6.8,No
2020/03/17,11:30,-,0.161,0.256,0.241,0.255,0.137,0.083,west-northwest,4.5,No
2020/03/17,11:40,-,0.161,0.258,0.241,0.253,0.137,0.084,west-northwest,6.5,No
2020/03/17,11:50,-,0.162,0.256,0.242,0.253,0.137,0.083,west,5.7,No
2020/03/17,12:00,-,0.162,0.256,0.241,0.252,0.137,0.083,south-southwest,5.6,No
2020/03/17,12:10,-,0.161,0.257,0.241,0.254,0.137,0.084,south-southeast,8.4,No
2020/03/17,12:20,-,0.162,0.256,0.241,0.252,0.138,0.083,south-southeast,9.8,No
2020/03/17,12:30,-,0.163,0.256,0.241,0.254,0.137,0.084,south-southeast,8.1,No
2020/03/17,12:40,-,0.162,0.257,0.242,0.253,0.137,0.083,southeast,7.7,No
2020/03/17,12:50,-,0.162,0.256,0.242,0.255,0.137,0.084,south-southeast,7.5,No
2020/03/17,13:00,-,0.162,0.257,0.243,0.254,0.137,0.084,southeast,7.7,No
2020/03/17,13:10,-,0.162,0.258,0.243,0.256,0.137,0.084,south-southeast,8.8,No
2020/03/17,13:20,-,0.162,0.256,0.241,0.253,0.137,0.083,south,9.5,No
2020/03/17,13:30,-,0.163,0.258,0.242,0.255,0.138,0.083,south-southeast,10.3,No
2020/03/17,13:40,-,0.162,0.256,0.242,0.253,0.138,0.084,south-southeast,10.7,No
2020/03/17,13:50,-,0.162,0.257,0.242,0.253,0.138,0.084,south-southeast,12.0,No
2020/03/17,14:00,-,0.162,0.258,0.242,0.254,0.137,0.084,south-southeast,9.5,No
2020/03/17,14:10,-,0.162,0.257,0.244,0.253,0.138,0.083,south,11.2,No
2020/03/17,14:20,-,0.162,0.259,0.242,0.256,0.138,0.084,south,10.9,No
2020/03/17,14:30,-,0.163,0.259,0.244,0.254,0.138,0.083,south-southeast,10.1,No
2020/03/17,14:40,-,0.163,0.257,0.243,0.253,0.138,0.083,south-southeast,10.9,No
2020/03/17,14:50,-,0.162,0.259,0.243,0.255,0.137,0.084,south-southeast,10.0,No
2020/03/17,15:00,-,0.162,0.257,0.243,0.255,0.138,0.084,south-southeast,8.8,No
2020/03/17,15:10,-,0.162,0.259,0.243,0.255,0.137,0.083,south,9.8,No
2020/03/17,15:20,-,0.162,0.258,0.243,0.255,0.137,0.083,south,10.3,No
2020/03/17,15:30,0.180,0.162,0.257,0.243,0.255,0.137,0.084,south-southeast,9.3,No
2020/03/17,15:40,0.180,0.162,0.259,0.243,0.256,0.137,0.084,south,10.6,No
2020/03/17,15:50,0.179,0.163,0.258,0.244,0.255,0.138,0.084,south,9.2,No
2020/03/17,16:00,0.180,0.162,0.258,0.243,0.255,0.138,0.083,south,9.5,No
2020/03/17,16:10,0.179,0.161,0.258,0.242,0.255,0.139,0.084,south,9.6,No
2020/03/17,16:20,0.177,0.163,0.258,0.244,0.255,0.137,0.084,south,9.8,No
2020/03/17,16:30,0.179,0.163,0.257,0.243,0.256,0.136,0.084,south,10.9,No
2020/03/17,16:40,0.178,0.163,0.258,0.243,0.255,0.138,0.084,south,10.9,No
2020/03/17,16:50,0.179,0.162,0.260,0.244,0.253,0.139,0.084,south,9.8,No
2020/03/17,17:00,0.179,0.163,0.258,0.244,0.255,0.138,0.083,south,7.8,No
2020/03/17,17:10,0.178,0.163,0.258,0.244,0.255,0.138,0.083,south,7.6,No
2020/03/17,17:20,0.178,0.163,0.259,0.243,0.255,0.139,0.085,south,7.7,No
2020/03/17,17:30,0.178,0.163,0.258,0.243,0.256,0.138,0.084,south,7.9,No
2020/03/17,17:40,0.177,0.162,0.258,0.243,0.256,0.138,0.084,south,8.8,No
2020/03/17,17:50,0.179,0.163,0.258,0.243,0.255,0.138,0.083,south,8.4,No
2020/03/17,18:00,0.179,0.164,0.257,0.242,0.257,0.138,0.084,south,8.4,No
2020/03/17,18:10,0.176,0.163,0.259,0.242,0.255,0.138,0.084,south,7.1,No
2020/03/17,18:20,0.177,0.161,0.258,0.243,0.255,0.138,0.084,south,7.0,No
2020/03/17,18:30,0.178,0.163,0.259,0.243,0.255,0.138,0.083,south,7.4,No
2020/03/17,18:40,0.178,0.163,0.258,0.243,0.253,0.137,0.084,south,8.1,No
2020/03/17,18:50,0.178,0.163,0.258,0.243,0.253,0.138,0.084,south,7.5,No
2020/03/17,19:00,0.178,0.162,0.259,0.243,0.255,0.137,0.084,south,7.6,No
2020/03/17,19:10,0.177,0.164,0.259,0.243,0.254,0.138,0.083,south,7.7,No
2020/03/17,19:20,0.178,0.163,0.259,0.243,0.253,0.138,0.084,south,7.6,No
2020/03/17,19:30,0.178,0.161,0.259,0.244,0.254,0.138,0.084,south,7.3,No
2020/03/17,19:40,0.178,0.163,0.259,0.244,0.254,0.138,0.084,south,5.9,No
2020/03/17,19:50,0.178,0.164,0.259,0.243,0.256,0.137,0.084,south,6.0,No
2020/03/17,20:00,0.177,0.162,0.260,0.244,0.254,0.137,0.084,south,4.9,No
2020/03/17,20:10,0.178,0.161,0.260,0.242,0.254,0.138,0.083,south,5.3,No
2020/03/17,20:20,0.178,0.163,0.258,0.242,0.254,0.137,0.083,south,4.6,No
2020/03/17,20:30,0.178,0.163,0.259,0.242,0.254,0.137,0.085,south-southwest,4.5,No
2020/03/17,20:40,0.178,0.163,0.259,0.243,0.254,0.138,0.083,south,4.3,No
2020/03/17,20:50,0.178,0.162,0.259,0.244,0.254,0.137,0.084,south-southwest,3.4,No
2020/03/17,21:00,0.177,0.162,0.259,0.243,0.254,0.138,0.084,south-southwest,4.0,No
2020/03/17,21:10,0.178,0.163,0.259,0.243,0.255,0.137,0.084,south-southwest,3.0,No
2020/03/17,21:20,0.178,0.164,0.259,0.243,0.254,0.137,0.084,south-southwest,2.4,No
2020/03/17,21:30,0.178,0.163,0.259,0.243,0.254,0.137,0.084,south-southwest,2.6,No
2020/03/17,21:40,0.178,0.163,0.259,0.243,0.253,0.138,0.084,south-southwest,2.5,No
2020/03/17,21:50,0.177,0.163,0.259,0.243,0.254,0.138,0.084,south-southwest,2.8,No
2020/03/17,22:00,0.179,0.163,0.259,0.243,0.255,0.138,0.084,west-southwest,1.4,No
2020/03/17,22:10,0.178,0.163,0.258,0.244,0.255,0.138,0.084,west-southwest,3.4,No
2020/03/17,22:20,0.178,0.163,0.258,0.243,0.253,0.137,0.084,west-southwest,5.9,No
2020/03/17,22:30,0.178,0.163,0.260,0.243,0.253,0.138,0.085,west-southwest,6.5,No
2020/03/17,22:40,0.178,0.163,0.260,0.243,0.255,0.139,0.084,southwest,7.7,No
2020/03/17,22:50,0.177,0.163,0.259,0.244,0.254,0.138,0.084,southwest,4.6,No
2020/03/17,23:00,0.177,0.163,0.259,0.244,0.255,0.137,0.084,southwest,2.1,No
2020/03/17,23:10,0.179,0.162,0.260,0.243,0.254,0.139,0.085,south-southwest,1.3,No
2020/03/17,23:20,0.178,0.163,0.259,0.244,0.254,0.139,0.084,south-southwest,1.2,No
2020/03/17,23:30,0.177,0.162,0.259,0.244,0.253,0.137,0.084,south,1.6,No
2020/03/17,23:40,0.178,0.163,0.260,0.244,0.254,0.138,0.083,northwest,0.9,No
2020/03/17,23:50,0.178,0.163,0.259,0.243,0.255,0.138,0.084,west-northwest,1.5,No
